Tracking 18980 objects as of 22-Feb-2018
HD Live streaming from Space Station
objects crossing your sky now

ATS 6

Track ATS 6 now!
ATS 6 is classified as:


NORAD ID: 7318
Int'l Code: 1974-039A
Perigee: 35,211.1 km
Apogee: 35,431.7 km
Inclination: 9.1 °
Period: 1,412.0 minutes
Semi major axis: 41692 km
RCS: 6.3095 m2 (large)
Launch date: May 30, 1974
Source: United States (US)
Launch site: AIR FORCE EASTERN TEST RANGE (AFETR)
aabbcc
Your satellite tracking list
Your tracking list is empty




NASA's NSSDC Master Catalog

Two Line Element Set (TLE):
1  7318U 74039A   18052.70187963 -.00000228 +00000-0 +00000-0 0  9992
2  7318 009.1254 304.9076 0026457 236.7912 324.1279 01.01980699091028
Source of the keplerian elements: AFSPC